PRAETORIAN SDA_603

Last updated on Sun Jun 21 2026 00:03:46 GMT+0000 (Coordinated Universal Time)

1 65566U 25203B 26171.30411024 .00000275 00000+0 23691-3 0 9999 2 65566 81.3037 7.7998 0009556 178.7312 181.3871 13.83904580 39132
UTC large
Height (km)
Speed (km/s)
/
Latitude / Longitude
Inclination (degrees)
Orbital Period (minutes)
Azimuth
Elevation
Range (km)
Doppler Factor

Next 0 passes for location: London (51.5072 / 0.1276)

No passes found over London.
PRAETORIAN SDA_603